• Join FlightAware (Why Join?)
  • Login
  • US Flag GB Flag 
20:49 EST


 

Airport Tracker/Info


-or-


 

Live Flight TrackerFlight Track Log ✈ EJM90 ✈ 24-Jun-2013 ✈ KAVL - KORL

Flight Track Log - Related Links

Times and Time Zones

All times are in EDT time to prevent confusion due to time zone crossing. See the EJM90 flight status page for this flight to view local times or setup timezone preferences in your user account.

Time Position Orientation Groundspeed Altitude Reporting Facility
EDT Latitude Longitude Course Direction KTS MPH feet Rate Location/Type
15:07 35.3411 -82.4856 177° South 253 291 8,100  Level Atlanta Center
15:12 34.9355 -82.2263 177° South  Level FlightAware Approximate
15:13 34.8339 -82.3281 177° South 373 429 23,800  Level FlightAware ADS-B
15:13 34.7820 -82.3204 173° South 376 433 25,100 2,520 Climbing FlightAware ADS-B
15:14 34.7282 -82.3124 173° South 382 440 26,400 2,280 Climbing FlightAware ADS-B
15:14 34.6735 -82.3042 173° South 388 447 27,500 2,100 Climbing FlightAware ADS-B
15:15 34.5754 -82.2897 173° South 395 455 29,400 1,800 Climbing FlightAware ADS-B
15:16 34.4869 -82.2772 173° South 396 456 30,900 1,680 Climbing Atlanta Center
15:17 34.3719 -82.2619 174° South 401 461 32,800 1,500 Climbing Atlanta Center
15:18 34.2569 -82.2419 172° South 417 480 34,000 1,440 Climbing Atlanta Center
15:19 34.1314 -82.2244 173° South 438 504 35,700 2,100 Climbing Atlanta Center
15:20 34.0142 -82.2044 172° South 443 510 38,200 2,100 Climbing Atlanta Center
15:21 33.8972 -82.1867 173° South 437 503 40,000 900 Climbing Atlanta Center
15:22 33.7736 -82.1694 173° South 437 503 40,000 540 Level Atlanta Center
15:23 33.6506 -82.1722 181° South 442 509 41,100 1,320 Climbing Atlanta Center
15:24 33.5339 -82.1897 187° South 437 503 42,700 900 Climbing Atlanta Center
15:25 33.4175 -82.2094 188° South 432 497 43,000 120 Climbing Atlanta Center
15:26 33.2983 -82.1972 175° South 427 491 43,000  Level Atlanta Center
15:27 33.1767 -82.1675 168° South 428 493 43,000  Level Atlanta Center
15:29 32.9575 -82.1078 167° South 449 517 43,000  Level Jacksonville Center
15:30 32.8464 -82.0494 156° South 449 517 43,000  Level Jacksonville Center
15:31 32.7292 -82.0061 163° South 449 517 43,000  Level Jacksonville Center
15:32 32.6100 -81.9875 173° South 428 493 43,000  Level Jacksonville Center
15:33 32.4889 -81.9617 170° South 435 501 43,000 -300 Level Jacksonville Center
15:34 32.3781 -81.9381 170° South 447 514 42,400 -1,080 Descending Jacksonville Center
15:35 32.2483 -81.9100 170° South 442 509 40,900 -1,500 Descending Jacksonville Center
15:36 32.1417 -81.8892 171° South 447 514 39,400 -2,220 Descending Jacksonville Center
15:37 32.0058 -81.8586 169° South 452 520 36,500 -1,740 Descending Jacksonville Center
15:38 31.8822 -81.8331 170° South 452 520 36,000 -300 Descending Jacksonville Center
15:39 31.7714 -81.8100 170° South 452 520 35,900 -840 Descending Jacksonville Center
15:40 31.6333 -81.7800 170° South 459 528 34,400 -1,500 Descending Jacksonville Center
15:41 31.5164 -81.7544 169° South 471 542 32,900 -1,680 Descending Jacksonville Center
15:42 31.3761 -81.7244 170° South 471 542 31,100 -1,620 Descending Jacksonville Center
15:43 31.2444 -81.6969 170° South 477 549 29,700 -1,320 Descending Jacksonville Center
15:44 31.1147 -81.6867 176° South 471 542 28,500 -900 Descending Jacksonville Center
15:45 30.9833 -81.7078 188° South 466 536 27,900 -300 Descending Jacksonville Center
15:46 30.8519 -81.7286 188° South 471 542 28,000  Climbing Jacksonville Center
15:47 30.7375 -81.7469 188° South 478 550 28,000  Level Jacksonville Center
15:48 30.6081 -81.7703 189° South 478 550 28,000 -300 Level Jacksonville Center
15:50 30.3508 -81.7156 170° South 479 551 27,100 -1,020 Descending Jacksonville Center
15:51 30.2311 -81.6447 153° Southeast 479 551 25,100 -2,040 Descending Jacksonville Center
15:52 30.1178 -81.5814 154° Southeast 466 536 23,100 -2,100 Descending Jacksonville Center
15:53 30.0044 -81.5158 153° Southeast 455 524 21,000 -2,100 Descending Jacksonville Center
15:54 29.8931 -81.4528 154° Southeast 449 517 18,900 -1,980 Descending Jacksonville Center
15:55 29.7858 -81.3922 154° Southeast 444 511 17,100 -1,860 Descending Jacksonville Center
15:56 29.6808 -81.3317 153° Southeast 434 499 15,200 -1,980 Descending Jacksonville Center
15:57 29.5778 -81.2758 155° Southeast 423 487 13,200 -2,100 Descending Jacksonville Center
15:58 29.4769 -81.2181 153° Southeast 410 472 11,000 -1,500 Descending Jacksonville Center
15:59 29.3867 -81.1789 159° South 382 440 10,200 -900 Descending Jacksonville Center
16:00 29.3072 -81.1756 178° South 323 372 9,300 -1,140 Descending Jacksonville Center
16:01 29.2300 -81.1722 178° South 298 343 8,000 -1,320 Descending Jacksonville Center
16:02 29.1528 -81.1711 179° South 288 331 6,700 -1,320 Descending Jacksonville Center
16:03 29.0753 -81.1678 178° South 281 323 5,400 -900 Descending Jacksonville Center
16:04 29.0047 -81.1903 196° South 274 315 4,900 -180 Descending Jacksonville Center
16:06 28.8975 -81.2917 220° Southwest 262 302 4,900 -240 Level Jacksonville Center
16:07 28.8667 -81.4000 252° West 279 321 4,200 -960 Descending Orlando TRACON
16:08 28.8500 -81.4667 254° West 272 313 3,000 -420 Descending Orlando TRACON
16:10 28.8000 -81.6333 251° West 273 314 3,000  Level Orlando TRACON
16:11 28.7333 -81.6333 180° South 267 307 3,100 180 Climbing Orlando TRACON
16:12 28.6500 -81.6333 180° South 262 302 3,500 -300 Climbing Orlando TRACON
16:13 28.5833 -81.6167 168° South 250 288 2,600 -780 Descending Orlando TRACON
16:14 28.5500 -81.5500 120° Southeast 216 249 2,000 -420 Descending Orlando TRACON
16:15 28.5333 -81.5000 111° Southeast 202 232 1,800 -300 Descending Orlando TRACON
16:16 28.5333 -81.4333 90° East 190 219 1,400 -480 Descending Orlando TRACON
16:17 28.5333 -81.3833 90° East 127 146 900 -540 Descending Orlando TRACON
16:18 28.5333 -81.3500 90° East 117 135 300 -600 Descending Orlando TRACON